#datint,netname,site,siteID,timestamp,IntT,BattV,AirT2,AirT,AirT_Avg,AirT_Max,AirT_Min,RH_Avg,RH_Max,RH_Min,EA_Avg,Td_Avg,Td_Max,Td_Min,WindS_Smp,WindS_Avg,WindD_Avg,WindD_SD,WindS_Max,ETo,ETr,SoilT4,SoilT8,SoilVWC8,SolarW_Avg,wetstate_Avg,wetT_Avg,Precip_accum,Precip_WPG,Precip_TB
15min,AgWx,beryljct,423,04FEB2019:00:00:00,40.4,12.89,41.0,39.9,39.5,39.9,39.0,78,81,75,0.631,33.1,33.7,32.8,4.779,5.9,160,11,10.0,0.00007,0.00010,.,38.1,24,0,0,40.6,10.23,0.00,0.00
15min,AgWx,beryljct,423,04FEB2019:00:15:00,40.5,12.88,40.6,39.9,39.7,40.2,39.4,76,78,74,0.624,32.8,33.1,32.5,7.585,4.7,171,19,9.4,0.00006,0.00008,.,38.1,24,0,0,40.6,10.24,0.00,0.00
15min,AgWx,beryljct,423,04FEB2019:00:30:00,40.6,12.88,39.9,39.4,39.7,40.1,39.4,76,77,74,0.627,32.6,32.8,32.4,5.744,5.5,174,12,9.5,0.00008,0.00011,.,38.0,25,0,0,40.6,10.23,0.00,0.00
15min,AgWx,beryljct,423,04FEB2019:00:45:00,40.5,12.88,39.9,39.5,39.4,39.5,39.2,76,77,75,0.617,32.6,32.7,32.3,7.826,6.1,174,11,14.8,0.00008,0.00011,.,38.0,25,0,0,40.3,10.23,0.01,0.00
15min,AgWx,beryljct,423,04FEB2019:01:00:00,40.4,12.86,39.5,39.0,39.2,39.5,39.0,76,77,75,0.623,32.3,32.5,32.2,7.322,8.1,181,11,13.0,0.00011,0.00014,.,38.0,25,0,0,40.1,10.23,0.00,0.00
15min,AgWx,beryljct,423,04FEB2019:01:15:00,40.2,12.86,39.2,38.9,39.0,39.2,38.9,77,77,76,0.618,32.3,32.4,32.2,6.357,8.9,184,9.2,12.1,0.00011,0.00014,.,38.0,25,0,0,40.0,10.23,0.00,0.00
15min,AgWx,beryljct,423,04FEB2019:01:30:00,40.1,12.86,39.1,38.8,38.8,39.0,38.7,77,78,76,0.612,32.2,32.4,32.1,6.094,6.7,178,9.8,11.8,0.00009,0.00011,.,38.0,25,0,0,39.7,10.23,0.00,0.00
15min,AgWx,beryljct,423,04FEB2019:01:45:00,40.0,12.84,39.0,38.7,38.8,39.0,38.7,76,77,76,0.603,31.9,32.1,31.7,8.44,9.4,178,9.4,14.5,0.00012,0.00015,.,38.0,25,0,0,39.7,10.24,0.00,0.00
15min,AgWx,beryljct,423,04FEB2019:02:00:00,39.9,12.85,39.2,38.7,38.6,38.7,38.5,76,77,75,0.599,31.7,31.9,31.5,10.24,10.4,183,11,14.6,0.00013,0.00016,.,38.0,25,0,0,39.6,10.24,0.00,0.00
15min,AgWx,beryljct,423,04FEB2019:02:15:00,39.7,12.84,38.7,38.5,38.5,38.7,38.2,76,76,75,0.595,31.5,31.7,31.3,7.804,10.1,186,10,13.9,0.00013,0.00016,.,38.0,25,0,0,39.3,10.23,0.00,0.00
15min,AgWx,beryljct,423,04FEB2019:02:30:00,39.4,12.84,38.3,38.1,38.2,38.5,38.0,75,77,75,0.586,31.2,31.4,30.9,8.55,9.4,181,9.7,13.8,0.00013,0.00015,.,37.9,26,0,0,38.5,10.23,0.00,0.00
15min,AgWx,beryljct,423,04FEB2019:02:45:00,39.2,12.84,38.5,38.0,38.1,38.2,38.0,75,76,75,0.586,31.0,31.2,30.8,8.59,10.2,175,8.6,13.9,0.00013,0.00016,.,37.9,25,0,0,38.8,10.23,0.00,0.00
15min,AgWx,beryljct,423,04FEB2019:03:00:00,39.2,12.82,38.5,37.9,38.0,38.1,37.8,76,77,75,0.587,31.0,31.2,30.9,6.577,7.7,183,11,11.5,0.00010,0.00013,.,37.9,25,0,0,39.0,10.23,0.00,0.00
15min,AgWx,beryljct,423,04FEB2019:03:15:00,39.2,12.83,38.3,37.9,38.0,38.1,37.9,76,76,75,0.588,31.0,31.1,30.9,7.848,7.9,183,11,15.2,0.00011,0.00014,.,37.9,25,0,0,39.1,10.23,0.00,0.00
15min,AgWx,beryljct,423,04FEB2019:03:30:00,39.2,12.82,37.9,37.6,37.7,38.0,37.5,77,78,76,0.587,31.1,31.3,30.9,6.555,8.2,176,14,14.0,0.00010,0.00013,.,37.9,25,0,0,38.9,10.23,0.00,0.00
15min,AgWx,beryljct,423,04FEB2019:03:45:00,39.1,12.81,37.7,37.5,37.5,37.6,37.5,77,78,77,0.589,31.1,31.3,31.0,9.14,10.7,175,13,15.0,0.00012,0.00014,.,37.9,25,0,0,38.8,10.23,0.00,0.00
15min,AgWx,beryljct,423,04FEB2019:04:00:00,39.1,12.81,37.8,37.3,37.4,37.5,37.2,78,79,78,0.591,31.2,31.3,31.1,11.42,9.9,174,9.1,14.6,0.00011,0.00013,.,37.9,24,0,0,38.7,10.23,0.00,0.00
15min,AgWx,beryljct,423,04FEB2019:04:15:00,39.0,12.81,37.8,37.3,37.3,37.5,37.3,78,78,78,0.587,31.1,31.2,31.0,14.89,10.8,171,11,15.7,0.00012,0.00014,.,37.9,25,0,0,38.6,10.24,0.01,0.00
15min,AgWx,beryljct,423,04FEB2019:04:30:00,38.9,12.81,37.6,37.0,37.2,37.4,37.0,78,78,77,0.585,30.9,31.0,30.8,12.04,11.9,171,9.3,15.8,0.00012,0.00015,.,37.9,25,0,0,38.4,10.24,0.00,0.00
15min,AgWx,beryljct,423,04FEB2019:04:45:00,38.8,12.8,37.4,37.0,37.0,37.2,37.0,78,79,78,0.585,30.9,31.0,30.9,9.19,11.0,174,8.7,16.9,0.00011,0.00014,.,37.9,25,0,0,38.4,10.23,0.00,0.00
15min,AgWx,beryljct,423,04FEB2019:05:00:00,38.7,12.8,37.3,36.7,36.8,37.0,36.6,79,80,78,0.585,31.0,31.1,30.9,12.78,10.4,162,11,14.3,0.00010,0.00013,.,37.9,25,0,0,38.1,10.23,0.00,0.00
15min,AgWx,beryljct,423,04FEB2019:05:15:00,38.5,12.79,37.1,36.5,36.5,36.8,36.4,80,81,79,0.587,31.0,31.2,30.9,7.475,8.5,156,7.5,12.3,0.00008,0.00010,.,37.8,25,0,0,37.9,10.23,0.00,0.00
15min,AgWx,beryljct,423,04FEB2019:05:30:00,38.4,12.79,37.1,36.7,36.7,36.9,36.5,79,80,78,0.581,30.8,31.1,30.7,10.24,9.1,172,10,14.3,0.00009,0.00011,.,37.8,25,0,0,38.0,10.23,0.00,0.00
15min,AgWx,beryljct,423,04FEB2019:05:45:00,38.3,12.8,36.9,36.5,36.6,36.7,36.5,79,80,79,0.582,30.8,30.9,30.7,11.79,9.5,171,8.1,13.2,0.00009,0.00012,.,37.8,26,0,0,37.9,10.23,0.00,0.00
15min,AgWx,beryljct,423,04FEB2019:06:00:00,38.2,12.8,36.8,36.3,36.4,36.6,36.2,80,81,79,0.585,30.9,31.0,30.7,10.79,11.3,175,8.5,17.2,0.00010,0.00012,.,37.8,25,0,0,37.8,10.23,0.00,0.00
15min,AgWx,beryljct,423,04FEB2019:06:15:00,38.1,12.79,36.9,36.4,36.3,36.5,36.3,80,81,79,0.583,30.8,30.9,30.6,13.88,11.8,185,7.8,16.1,0.00010,0.00012,.,37.8,25,0,0,37.8,10.23,0.00,0.00
15min,AgWx,beryljct,423,04FEB2019:06:30:00,38.0,12.78,36.7,36.3,36.4,36.5,36.3,80,80,79,0.580,30.7,30.9,30.5,9.93,11.4,182,8.4,16.7,0.00010,0.00012,.,37.8,24,0,0,37.9,10.23,0.00,0.00
15min,AgWx,beryljct,423,04FEB2019:06:45:00,38.0,12.76,36.7,36.3,36.2,36.4,36.2,80,81,80,0.579,30.7,30.8,30.6,10.98,11.2,178,8.4,16.2,0.00010,0.00012,.,37.7,25,0,0,37.7,10.23,0.00,0.00
15min,AgWx,beryljct,423,04FEB2019:07:00:00,38.0,12.79,36.8,36.3,36.3,36.5,36.2,80,80,79,0.578,30.7,30.8,30.6,12.58,12.2,178,7.5,17.5,0.00032,0.00055,.,37.7,25,0,0,37.8,10.23,0.00,0.00
15min,AgWx,beryljct,423,04FEB2019:07:15:00,38.0,12.77,37.1,36.5,36.4,36.5,36.3,79,80,79,0.577,30.6,30.8,30.6,14.84,12.8,175,7.8,16.8,0.00033,0.00057,.,37.7,25,0,0,37.9,10.23,0.00,0.00
15min,AgWx,beryljct,423,04FEB2019:07:30:00,38.0,12.76,37.0,36.4,36.4,36.6,36.3,79,80,79,0.580,30.6,30.8,30.5,11.14,12.0,173,8.6,15.7,0.00032,0.00056,.,37.7,24,0,0,37.8,10.23,0.00,0.00
15min,AgWx,beryljct,423,04FEB2019:07:45:00,38.1,12.78,36.8,36.5,36.5,36.6,36.4,79,80,79,0.580,30.7,30.8,30.6,11.86,13.1,177,7.7,17.1,0.00034,0.00059,.,37.7,25,1,0,38.0,10.23,0.00,0.00
15min,AgWx,beryljct,423,04FEB2019:08:00:00,38.1,12.78,36.9,36.5,36.4,36.5,36.3,80,80,79,0.583,30.8,30.9,30.7,11.29,12.2,179,6.4,16.6,0.00033,0.00056,.,37.7,25,5,0,37.9,10.23,0.00,0.00
15min,AgWx,beryljct,423,04FEB2019:08:15:00,38.1,12.76,37.0,36.6,36.6,36.7,36.5,79,80,79,0.584,30.8,31.0,30.7,11.75,12.8,189,8.1,16.6,0.00035,0.00060,.,37.6,25,6,0,38.1,10.23,0.00,0.00
15min,AgWx,beryljct,423,04FEB2019:08:30:00,37.9,12.78,36.5,36.0,36.2,36.6,36.0,82,83,80,0.596,31.1,31.4,30.9,9.6,10.4,201,8.4,15.0,0.00030,0.00050,.,37.6,24,13,0,37.3,10.24,0.01,0.00
15min,AgWx,beryljct,423,04FEB2019:08:45:00,37.6,12.79,36.0,35.7,36.0,36.1,35.7,84,85,83,0.605,31.6,31.9,31.4,8.75,11.1,190,7.2,15.9,0.00031,0.00049,.,37.6,25,27,0,36.9,10.24,0.00,0.00
15min,AgWx,beryljct,423,04FEB2019:09:00:00,37.5,12.89,36.4,36.2,36.0,36.3,35.7,86,87,85,0.625,32.2,32.6,31.8,12.32,11.4,184,10,15.8,0.00049,0.00066,.,37.6,25,92,0,37.4,10.24,0.00,0.01
15min,AgWx,beryljct,423,04FEB2019:09:15:00,37.7,13.05,36.4,36.3,36.0,36.3,35.9,88,89,86,0.642,32.7,33.2,32.3,15.26,12.9,194,8.2,18.8,0.00061,0.00077,.,37.6,25,163,0,38.8,10.24,0.00,0.00
15min,AgWx,beryljct,423,04FEB2019:09:30:00,38.2,13.36,38.2,37.6,36.8,37.6,36.2,87,88,85,0.655,33.3,33.7,32.9,10.98,12.0,189,11,15.7,0.00083,0.00102,.,37.6,25,250,0,43.0,10.24,0.00,0.00
15min,AgWx,beryljct,423,04FEB2019:09:45:00,38.9,13.51,37.2,36.7,37.3,37.7,36.7,85,87,82,0.638,33.1,33.9,32.7,15.98,16.7,182,7.0,25.8,0.00080,0.00104,.,37.6,25,219,0,42.5,10.24,0.00,0.00
15min,AgWx,beryljct,423,04FEB2019:10:00:00,39.4,14.39,38.1,37.7,37.2,37.8,36.7,86,88,84,0.644,33.4,34.0,33.1,14.75,14.5,186,8.6,19.8,0.00102,0.00124,.,37.6,25,329,0,44.1,10.24,0.00,0.00
15min,AgWx,beryljct,423,04FEB2019:10:15:00,40.0,14.68,37.5,37.3,37.7,38.5,37.2,85,88,83,0.655,33.7,34.5,32.9,18.63,14.8,174,8.7,20.4,0.00104,0.00128,.,37.5,26,322,0,44.4,10.25,0.00,0.00
15min,AgWx,beryljct,423,04FEB2019:10:30:00,40.6,14.63,38.7,38.5,38.1,38.7,37.3,86,87,84,0.668,34.2,35.0,33.6,20.32,17.4,181,8.4,24.0,0.00120,0.00146,.,37.5,25,404,0,45.5,10.24,0.00,0.00
15min,AgWx,beryljct,423,04FEB2019:10:45:00,41.1,14.59,39.1,38.5,38.4,38.7,38.2,84,86,83,0.670,34.0,34.6,33.4,24.16,20.8,181,9.8,28.7,0.00115,0.00145,.,37.5,25,385,0,44.5,10.25,0.00,0.00
15min,AgWx,beryljct,423,04FEB2019:11:00:00,41.5,14.65,39.9,38.8,38.6,39.3,38.2,84,85,82,0.679,34.2,35.2,33.2,13.33,21.3,184,9.2,29.7,0.00130,0.00161,.,37.5,25,452,0,45.3,10.25,0.00,0.00
15min,AgWx,beryljct,423,04FEB2019:11:15:00,41.8,14.64,39.7,38.6,38.8,39.2,38.5,83,85,82,0.650,34.1,35.0,33.4,12.91,18.0,194,9.7,25.2,0.00113,0.00143,.,37.5,26,336,0,45.6,10.25,0.00,0.00
15min,AgWx,beryljct,423,04FEB2019:11:30:00,41.9,14.61,39.5,38.9,38.8,39.1,38.6,82,84,80,0.649,33.7,34.4,33.0,19.55,17.6,191,11,23.3,0.00109,0.00140,.,37.5,25,295,0,45.5,10.25,0.00,0.00
15min,AgWx,beryljct,423,04FEB2019:11:45:00,41.8,14.58,39.7,39.2,38.9,39.3,38.6,79,81,78,0.641,33.1,33.7,32.6,17.78,19.6,185,8.2,25.3,0.00097,0.00133,.,37.5,25,217,0,43.7,10.24,0.00,0.00
15min,AgWx,beryljct,423,04FEB2019:12:00:00,41.9,14.56,40.0,39.7,39.4,40.0,38.9,79,81,76,0.633,33.4,34.5,32.7,20.83,21.4,180,9.2,26.6,0.00137,0.00177,.,37.5,25,406,0,45.4,10.25,0.00,0.00
15min,AgWx,beryljct,423,04FEB2019:12:15:00,42.5,14.55,40.0,39.9,40.0,40.5,39.6,76,77,74,0.630,33.0,33.6,32.1,22.82,23.5,189,8.2,29.9,0.00162,0.00211,.,37.5,25,501,0,46.3,10.24,0.00,0.00
15min,AgWx,beryljct,423,04FEB2019:12:30:00,43.1,14.15,40.2,40.2,40.5,41.3,39.9,76,78,75,0.639,33.6,34.8,32.9,26.96,23.4,189,8.6,30.3,0.00182,0.00232,.,37.5,25,604,0,47.2,10.24,0.00,0.00
15min,AgWx,beryljct,423,04FEB2019:12:45:00,43.6,14.18,42.2,41.3,40.6,41.4,39.7,76,78,74,0.663,33.6,34.3,32.6,18.2,21.4,187,10,27.4,0.00185,0.00234,.,37.5,25,598,0,47.9,10.24,0.00,0.00
15min,AgWx,beryljct,423,04FEB2019:13:00:00,44.1,14.12,41.5,40.4,40.4,41.4,40.0,77,80,74,0.666,33.9,34.7,32.9,17.87,20.7,181,10,28.1,0.00168,0.00213,.,37.6,25,536,0,47.6,10.24,0.00,0.00
15min,AgWx,beryljct,423,04FEB2019:13:15:00,44.4,14.15,39.0,39.7,40.6,41.2,39.7,77,81,75,0.675,34.0,34.7,33.3,23.81,22.5,184,8.6,28.3,0.00175,0.00222,.,37.6,25,572,0,47.6,10.24,0.00,0.00
15min,AgWx,beryljct,423,04FEB2019:13:30:00,43.7,14.13,39.2,38.6,38.5,39.6,38.1,85,88,81,0.695,34.6,35.3,33.7,14.36,20.3,182,8.6,25.3,0.00132,0.00160,.,37.6,25,487,0,43.4,10.24,0.00,0.00
15min,AgWx,beryljct,423,04FEB2019:13:45:00,43.4,14.17,40.9,39.9,39.7,40.6,38.6,84,89,78,0.653,35.1,36.0,33.5,17.52,18.2,186,8.2,25.6,0.00152,0.00184,.,37.6,25,525,0,46.0,10.24,0.00,0.00
15min,AgWx,beryljct,423,04FEB2019:14:00:00,43.4,14.14,40.6,39.7,39.7,40.3,39.2,80,81,78,0.652,34.0,34.9,33.5,18.24,21.1,178,9.4,27.6,0.00151,0.00190,.,37.7,25,512,0,45.3,10.25,0.00,0.00
15min,AgWx,beryljct,423,04FEB2019:14:15:00,43.6,14.14,39.2,39.3,39.7,40.2,39.3,80,82,79,0.652,34.1,35.1,33.5,22.45,20.6,179,9.0,26.6,0.00140,0.00178,.,37.7,24,468,0,45.4,10.25,0.00,0.00
15min,AgWx,beryljct,423,04FEB2019:14:30:00,43.2,14.13,39.9,39.4,39.0,39.5,38.6,82,84,80,0.667,34.1,35.0,33.6,22.6,19.2,179,9.1,27.9,0.00116,0.00148,.,37.8,25,389,0,43.6,10.25,0.00,0.00
15min,AgWx,beryljct,423,04FEB2019:14:45:00,42.8,14.15,40.3,39.8,39.0,39.8,38.2,84,87,81,0.690,34.4,35.6,33.5,22.97,20.4,182,7.9,28.7,0.00119,0.00150,.,37.8,25,428,0,43.5,10.24,0.00,0.00
15min,AgWx,beryljct,423,04FEB2019:15:00:00,43.0,14.15,39.6,39.9,39.7,40.0,39.3,80,83,78,0.654,33.9,35.1,33.2,23.39,22.2,180,8.2,29.6,0.00142,0.00182,.,37.9,25,481,0,43.5,10.24,0.00,0.00
15min,AgWx,beryljct,423,04FEB2019:15:15:00,42.9,14.17,39.1,38.7,38.8,39.7,38.3,81,83,78,0.649,33.5,34.0,33.2,19.91,20.2,182,6.8,28.3,0.00082,0.00115,.,37.9,25,228,0,42.6,10.24,0.00,0.00
15min,AgWx,beryljct,423,04FEB2019:15:30:00,42.3,14.19,40.0,39.4,38.8,39.4,38.6,80,81,78,0.648,33.2,33.6,32.6,16.62,17.8,187,9.1,23.0,0.00082,0.00115,.,37.9,25,249,0,43.3,10.24,0.00,0.00
15min,AgWx,beryljct,423,04FEB2019:15:45:00,42.4,14.16,40.3,40.2,40.0,40.5,39.4,76,79,73,0.619,33.0,33.9,32.2,22.25,18.5,185,8.2,24.2,0.00113,0.00154,.,37.9,24,318,0,43.2,10.24,0.00,0.00
15min,AgWx,beryljct,423,04FEB2019:16:00:00,42.6,14.16,40.0,39.6,39.9,40.2,39.6,74,76,73,0.620,32.3,33.1,31.8,16.38,17.7,184,8.6,23.0,0.00087,0.00129,.,38.0,25,218,0,43.6,10.24,0.00,0.00
15min,AgWx,beryljct,423,04FEB2019:16:15:00,42.4,14.18,39.2,38.8,39.1,39.6,38.8,77,79,75,0.629,32.6,33.0,32.2,17.12,17.8,182,8.9,24.0,0.00068,0.00104,.,38.1,25,178,0,42.3,10.24,0.00,0.00
15min,AgWx,beryljct,423,04FEB2019:16:30:00,41.8,13.4,38.1,38.0,38.5,38.8,38.0,80,82,78,0.633,32.7,33.0,32.5,16,17.5,183,8.7,25.1,0.00051,0.00082,.,38.1,25,135,0,41.2,10.25,0.01,0.00
15min,AgWx,beryljct,423,04FEB2019:16:45:00,41.0,13.31,37.9,37.5,37.6,38.0,37.4,83,84,82,0.629,32.9,33.3,32.6,11.6,15.3,184,9.5,20.8,0.00036,0.00060,.,38.1,25,117,0,38.9,10.24,0.00,0.00
15min,AgWx,beryljct,423,04FEB2019:17:00:00,40.2,13.2,38.9,38.2,37.8,38.2,37.4,82,83,80,0.623,32.6,33.0,32.3,14.36,12.6,196,10,21.0,0.00023,0.00045,.,38.2,25,76,0,39.6,10.24,0.00,0.00
15min,AgWx,beryljct,423,04FEB2019:17:15:00,39.9,13.16,37.8,37.7,38.1,38.4,37.7,80,82,78,0.629,32.5,32.8,32.2,19.09,16.5,194,8.9,22.1,0.00013,0.00015,.,38.3,25,44,0,39.4,10.24,0.00,0.00
15min,AgWx,beryljct,423,04FEB2019:17:30:00,39.3,13.12,37.5,37.0,37.0,37.6,36.7,84,86,82,0.631,32.7,33.0,32.4,10.87,15.8,196,7.9,22.4,0.00008,0.00010,.,38.3,25,33,36,37.1,10.25,0.00,0.00
15min,AgWx,beryljct,423,04FEB2019:17:45:00,38.9,13.07,37.4,37.0,37.2,37.3,37.0,83,85,83,0.623,32.6,32.9,32.4,15.37,16.1,188,7.5,21.8,0.00007,0.00009,.,38.3,25,11,0,37.2,10.25,0.00,0.00
15min,AgWx,beryljct,423,04FEB2019:18:00:00,38.6,13.06,37.0,36.5,36.7,37.0,36.5,85,86,83,0.625,32.5,32.6,32.4,8.99,12.6,186,7.1,18.1,0.00004,0.00006,.,38.4,25,5,0,36.8,10.25,0.00,0.01
15min,AgWx,beryljct,423,04FEB2019:18:15:00,38.4,13.05,36.9,36.6,36.5,36.7,36.5,85,86,85,0.625,32.6,32.8,32.5,10.81,11.6,186,7.8,16.8,0.00003,0.00004,.,38.4,25,1,0,36.6,10.26,0.01,0.00
15min,AgWx,beryljct,423,04FEB2019:18:30:00,38.1,13.03,36.9,36.5,36.5,36.6,36.4,85,86,85,0.624,32.5,32.6,32.4,11.25,11.8,188,7.4,16.0,0.00003,0.00004,.,38.4,25,0,13,36.5,10.26,0.00,0.00
15min,AgWx,beryljct,423,04FEB2019:18:45:00,37.9,13.02,36.2,35.9,36.2,36.6,35.8,86,87,85,0.621,32.4,32.7,32.3,12.3,12.9,193,9.2,18.6,0.00003,0.00004,.,38.4,25,0,100,36.4,10.27,0.01,0.01
15min,AgWx,beryljct,423,04FEB2019:19:00:00,37.6,13.01,35.9,35.4,35.5,35.9,35.4,88,90,87,0.626,32.5,32.7,32.4,11.29,11.3,185,8.5,15.0,0.00000,0.00001,.,38.4,24,0,86,36.0,10.28,0.01,0.01
15min,AgWx,beryljct,423,04FEB2019:19:15:00,37.4,13,36.6,36.2,35.8,36.2,35.4,89,90,88,0.633,32.9,33.0,32.6,16.95,12.5,191,7.0,19.1,0.00001,0.00001,.,38.5,25,0,96,36.2,10.28,0.00,0.00
15min,AgWx,beryljct,423,04FEB2019:19:30:00,37.3,13,35.7,35.4,35.7,36.2,35.4,89,90,88,0.627,32.7,32.9,32.6,11.07,13.1,187,8.3,18.2,0.00001,0.00002,.,38.5,25,0,59,36.1,10.29,0.01,0.01
15min,AgWx,beryljct,423,04FEB2019:19:45:00,37.2,12.99,36.1,35.6,35.6,35.7,35.4,90,90,89,0.630,32.9,33.0,32.7,17.69,15.3,180,9.8,21.1,0.00002,0.00002,.,38.5,26,0,34,36.1,10.30,0.01,0.00
15min,AgWx,beryljct,423,04FEB2019:20:00:00,37.1,12.98,35.7,35.2,35.5,35.7,35.2,90,90,89,0.626,32.7,32.8,32.6,13.85,14.7,175,7.0,20.7,0.00001,0.00002,.,38.5,24,0,0,36.0,10.30,0.00,0.00
15min,AgWx,beryljct,423,04FEB2019:20:15:00,37.0,12.97,36.0,35.6,35.4,35.6,35.2,90,90,89,0.627,32.7,32.8,32.6,15.21,13.9,181,8.9,19.2,0.00001,0.00002,.,38.5,25,0,24,35.9,10.30,0.00,0.01
15min,AgWx,beryljct,423,04FEB2019:20:30:00,37.0,12.97,35.4,35.1,35.5,35.7,35.1,89,90,88,0.621,32.6,32.8,32.4,11.68,13.9,188,9.3,20.2,0.00001,0.00002,.,38.5,25,0,83,36.1,10.31,0.01,0.00
15min,AgWx,beryljct,423,04FEB2019:20:45:00,36.8,12.96,35.3,34.8,34.8,35.2,34.6,91,92,90,0.625,32.4,32.6,32.2,9.47,11.1,190,9.2,17.0,-0.00001,-0.00001,.,38.5,25,0,38,35.6,10.31,0.00,0.01
15min,AgWx,beryljct,423,04FEB2019:21:00:00,36.6,12.95,34.6,34.5,34.8,35.1,34.5,91,92,90,0.606,32.4,32.8,31.8,16.24,12.9,190,10,20.2,-0.00000,0.00000,.,38.5,25,0,98,35.6,10.33,0.02,0.01
15min,AgWx,beryljct,423,04FEB2019:21:15:00,36.2,12.94,34.0,33.5,33.8,34.5,33.5,91,92,90,0.600,31.5,31.8,31.3,12.08,11.9,179,9.6,16.2,-0.00001,-0.00001,.,38.5,25,0,49,35.4,10.34,0.01,0.01
15min,AgWx,beryljct,423,04FEB2019:21:30:00,35.9,12.92,33.5,33.3,33.6,33.8,33.2,93,93,92,0.597,31.7,31.9,31.4,8.97,11.5,174,8.3,16.3,-0.00002,-0.00002,.,38.5,25,0,0,35.6,10.35,0.00,0.01
15min,AgWx,beryljct,423,04FEB2019:21:45:00,35.6,12.92,32.7,32.5,32.8,33.2,32.5,93,94,93,0.585,31.1,31.4,30.9,8.75,10.3,175,8.7,13.9,-0.00003,-0.00003,.,38.5,25,0,0,35.4,10.36,0.02,0.01
15min,AgWx,beryljct,423,04FEB2019:22:00:00,35.1,12.9,32.4,32.0,32.2,32.5,32.0,94,95,94,0.580,30.8,30.9,30.7,6.467,8.3,186,11,11.8,-0.00005,-0.00005,.,38.5,25,0,0,35.4,10.38,0.01,0.00
15min,AgWx,beryljct,423,04FEB2019:22:15:00,34.8,12.9,32.5,32.0,31.9,32.0,31.9,95,96,95,0.583,30.7,30.9,30.6,4.735,4.3,181,13,6.5,-0.00010,-0.00012,.,38.5,25,0,74,35.4,10.42,0.04,0.00
15min,AgWx,beryljct,423,04FEB2019:22:30:00,34.6,12.89,32.4,31.9,31.9,32.0,31.9,96,96,96,0.582,30.8,30.9,30.8,0.482,3.1,198,23,5.4,-0.00012,-0.00015,.,38.5,25,0,98,35.8,10.44,0.02,0.00
15min,AgWx,beryljct,423,04FEB2019:22:45:00,34.5,12.87,32.5,32.1,32.0,32.1,31.9,96,96,96,0.590,31.0,31.1,30.8,8.11,4.8,166,14,11.7,-0.00010,-0.00011,.,38.4,25,0,70,35.3,10.46,0.02,0.00
15min,AgWx,beryljct,423,04FEB2019:23:00:00,34.4,12.87,32.3,31.9,31.9,32.1,31.8,96,96,96,0.584,30.9,31.1,30.8,7.059,8.2,169,7.1,11.6,-0.00006,-0.00006,.,38.4,25,0,26,35.3,10.48,0.02,0.00
15min,AgWx,beryljct,423,04FEB2019:23:15:00,34.4,12.86,32.6,32.1,31.9,32.1,31.8,96,96,96,0.591,31.0,31.2,30.8,11.2,8.8,173,8.4,13.1,-0.00006,-0.00006,.,38.4,25,0,0,35.8,10.49,0.01,0.00
15min,AgWx,beryljct,423,04FEB2019:23:30:00,34.3,12.85,33.0,32.5,32.3,32.5,32.0,96,97,96,0.600,31.3,31.6,31.1,9.08,11.1,171,10,15.6,-0.00005,-0.00005,.,38.4,25,0,0,35.6,10.50,0.01,0.00
15min,AgWx,bigpiney,439,04FEB2019:00:00:00,19.8,12.73,17.1,16.7,16.1,16.7,15.8,91,91,90,0.293,13.8,14.5,13.4,4.801,4.4,312,15,6.5,-0.00005,-0.00006,28.9,30.2,8,0,0,0.0,0.06,0.00,0.00
15min,AgWx,bigpiney,439,04FEB2019:00:15:00,19.9,12.73,17.2,17.3,17.1,18.0,16.3,91,92,90,0.297,14.9,16.0,13.9,4.801,4.4,336,23,7.3,-0.00006,-0.00006,28.9,30.1,8,0,0,0.0,0.06,0.00,0.00
15min,AgWx,bigpiney,439,04FEB2019:00:30:00,19.9,12.73,17.7,16.4,16.6,17.3,15.7,90,92,89,0.284,14.2,15.1,13.0,4.362,4.4,338,25,6.8,-0.00005,-0.00006,28.9,30.2,8,0,0,0.0,0.06,0.00,0.00
15min,AgWx,bigpiney,439,04FEB2019:00:45:00,19.8,12.73,16.6,16.3,16.6,17.2,16.2,90,92,89,0.284,14.3,15.2,13.5,5.48,4.7,320,19,7.0,-0.00005,-0.00006,28.9,30.2,8,0,0,0.0,0.06,0.00,0.00
15min,AgWx,bigpiney,439,04FEB2019:01:00:00,19.8,12.72,17.1,16.4,16.8,17.2,16.2,90,91,89,0.285,14.4,14.9,13.6,6.029,5.2,316,20,8.1,-0.00005,-0.00005,28.9,30.2,8,0,0,0.0,0.06,0.00,0.00
15min,AgWx,bigpiney,439,04FEB2019:01:15:00,19.7,12.72,16.9,16.7,16.7,17.5,16.2,90,92,90,0.288,14.3,15.5,13.7,5.919,5.0,319,16,7.8,-0.00005,-0.00005,28.9,30.1,8,0,0,0.0,0.06,0.00,0.00
15min,AgWx,bigpiney,439,04FEB2019:01:30:00,19.6,12.71,18.4,17.4,16.7,18.1,16.0,90,93,89,0.302,14.3,16.2,13.4,3.683,5.2,312,23,10.5,-0.00005,-0.00005,28.9,30.2,8,0,0,0.0,0.06,0.00,0.00
15min,AgWx,bigpiney,439,04FEB2019:01:45:00,19.5,12.69,20.6,20.0,18.1,20.1,17.3,91,92,90,0.343,15.9,18.3,14.9,6.993,2.5,328,77,7.7,-0.00009,-0.00011,28.9,30.1,8,0,0,0.0,0.06,0.00,0.00
15min,AgWx,bigpiney,439,04FEB2019:02:00:00,19.8,12.69,25.6,25.4,22.1,25.4,19.5,91,92,89,0.415,19.7,22.7,17.0,11.05,5.7,139,60,11.6,-0.00005,-0.00005,28.9,30.2,8,0,0,0.0,0.06,0.00,0.00
15min,AgWx,bigpiney,439,04FEB2019:02:15:00,21.0,12.69,29.0,27.6,26.2,27.6,25.5,86,89,83,0.422,22.6,23.4,22.2,12.5,10.2,165,10,19.3,0.00000,0.00001,28.9,30.2,8,0,0,0.0,0.06,0.00,0.00
15min,AgWx,bigpiney,439,04FEB2019:02:30:00,22.6,12.7,29.1,28.8,28.4,29.1,27.6,77,83,74,0.402,22.1,23.4,21.6,12.82,11.0,165,16,16.5,0.00005,0.00007,28.9,30.2,8,0,0,0.0,0.06,0.00,0.00
15min,AgWx,bigpiney,439,04FEB2019:02:45:00,24.0,12.69,31.1,29.9,29.0,30.5,28.3,74,76,70,0.395,21.8,22.4,21.3,14.97,12.9,129,20,21.7,0.00008,0.00010,28.9,30.2,8,0,0,0.0,0.06,0.00,0.00
15min,AgWx,bigpiney,439,04FEB2019:03:00:00,25.3,12.69,29.2,28.9,29.8,30.5,28.9,71,73,70,0.390,21.6,21.8,20.9,16.95,13.5,132,15,19.1,0.00011,0.00013,28.9,30.2,8,0,0,0.0,0.06,0.00,0.00
15min,AgWx,bigpiney,439,04FEB2019:03:15:00,26.1,12.68,26.9,26.6,27.6,29.1,26.2,75,78,72,0.379,20.7,21.5,19.8,10.59,10.7,126,15,17.9,0.00006,0.00008,28.9,30.2,8,0,0,0.0,0.06,0.00,0.00
15min,AgWx,bigpiney,439,04FEB2019:03:30:00,26.3,12.68,27.0,26.4,26.3,26.9,25.9,78,79,77,0.379,20.3,20.8,19.6,6.138,8.9,136,17,13.3,0.00003,0.00004,28.8,30.2,8,0,0,0.0,0.06,0.00,0.00
15min,AgWx,bigpiney,439,04FEB2019:03:45:00,26.1,12.68,29.4,28.0,27.0,28.0,26.2,74,78,69,0.364,19.8,20.6,19.0,8.13,6.1,201,71,12.7,0.00001,0.00002,28.8,30.2,8,0,0,0.0,0.06,0.00,0.00
15min,AgWx,bigpiney,439,04FEB2019:04:00:00,26.2,12.68,29.9,29.2,28.9,29.3,28.1,68,70,67,0.367,19.9,20.2,19.6,12.91,10.8,239,9.2,13.9,0.00010,0.00012,28.8,30.2,8,0,0,0.0,0.06,0.00,0.00
15min,AgWx,bigpiney,439,04FEB2019:04:15:00,26.5,12.67,29.5,29.2,29.2,29.3,29.0,67,68,66,0.363,19.6,19.9,19.4,10.92,10.4,227,10,15.8,0.00010,0.00013,28.8,30.3,8,0,0,0.0,0.06,0.00,0.00
15min,AgWx,bigpiney,439,04FEB2019:04:30:00,26.9,12.67,25.7,26.4,28.6,29.6,26.4,67,71,65,0.343,19.0,19.7,17.9,4.494,8.7,191,28,14.4,0.00008,0.00010,28.8,30.3,8,0,0,0.0,0.06,0.00,0.00
15min,AgWx,bigpiney,439,04FEB2019:04:45:00,26.6,12.67,22.7,22.2,25.5,27.0,22.2,71,78,69,0.319,17.6,19.0,15.2,15.39,7.7,134,17,15.4,0.00004,0.00006,28.8,30.2,8,0,0,0.0,0.06,0.00,0.00
15min,AgWx,bigpiney,439,04FEB2019:05:00:00,25.9,12.64,23.2,22.6,22.3,22.8,21.7,81,83,79,0.334,17.3,17.9,16.6,11.31,13.0,113,4.6,17.3,0.00004,0.00005,28.8,30.3,8,0,0,0.0,0.06,0.00,0.00
15min,AgWx,bigpiney,439,04FEB2019:05:15:00,25.1,12.64,24.2,23.7,23.0,23.7,22.6,79,81,78,0.339,17.6,17.9,17.2,10.5,10.6,128,7.7,13.3,0.00003,0.00004,28.8,30.3,8,0,0,0.0,0.06,0.00,0.00
15min,AgWx,bigpiney,439,04FEB2019:05:30:00,24.6,12.65,23.9,23.7,23.5,23.8,23.3,78,78,77,0.340,17.5,18.0,17.2,8.11,10.1,131,4.9,12.1,0.00004,0.00005,28.8,30.3,8,0,0,0.0,0.06,0.00,0.00
15min,AgWx,bigpiney,439,04FEB2019:05:45:00,24.2,12.64,25.5,24.8,24.4,25.4,23.4,77,78,75,0.347,18.3,19.0,17.4,10.41,9.7,142,6.7,13.5,0.00004,0.00005,28.8,30.3,8,0,0,0.0,0.06,0.00,0.00
15min,AgWx,bigpiney,439,04FEB2019:06:00:00,24.2,12.64,25.2,24.6,24.8,25.0,24.3,76,78,76,0.349,18.4,18.6,17.9,9.14,9.5,145,5.4,10.8,0.00004,0.00005,28.8,30.3,8,0,0,0.0,0.06,0.00,0.00
15min,AgWx,bigpiney,439,04FEB2019:06:15:00,24.2,12.63,23.3,23.0,24.1,24.7,23.0,77,78,76,0.330,18.1,18.6,17.2,12.23,11.6,135,7.4,17.5,0.00005,0.00006,28.8,30.3,8,0,0,0.0,0.06,0.00,0.00
15min,AgWx,bigpiney,439,04FEB2019:06:30:00,24.1,12.61,24.7,24.2,23.6,24.6,22.4,79,81,77,0.345,18.0,18.8,16.7,8.77,8.9,140,7.7,11.7,0.00002,0.00003,28.8,30.3,8,0,0,0.0,0.06,0.00,0.00
15min,AgWx,bigpiney,439,04FEB2019:06:45:00,24.1,12.61,26.0,25.3,24.8,25.3,24.0,77,79,76,0.356,18.8,19.2,17.9,4.582,7.2,143,8.8,10.8,0.00001,0.00002,28.8,30.3,8,0,0,0.0,0.06,0.00,0.00
15min,AgWx,bigpiney,439,04FEB2019:07:00:00,24.2,12.61,27.0,26.7,26.4,26.9,25.2,76,77,75,0.369,19.9,20.3,18.9,8.83,9.1,190,10,12.2,0.00004,0.00005,28.8,30.4,8,0,0,0.0,0.06,0.00,0.00
15min,AgWx,bigpiney,439,04FEB2019:07:15:00,24.7,12.61,29.8,28.7,27.3,28.7,26.6,75,75,73,0.392,20.3,21.3,19.7,22.86,13.1,202,6.2,23.3,0.00008,0.00009,28.8,30.3,8,0,0,0.0,0.06,0.00,0.00
15min,AgWx,bigpiney,439,04FEB2019:07:30:00,25.4,12.61,24.3,25.0,27.9,29.3,25.0,73,77,71,0.352,20.2,21.5,18.5,8.9,14.6,183,20,22.0,0.00010,0.00012,28.8,30.3,8,2,0,0.0,0.06,0.00,0.00
15min,AgWx,bigpiney,439,04FEB2019:07:45:00,25.7,12.66,24.5,24.5,24.7,24.9,24.5,78,79,77,0.355,18.9,19.2,18.4,13.61,13.5,164,8.0,20.3,0.00006,0.00007,28.8,30.4,8,7,0,0.0,0.06,0.00,0.00
15min,AgWx,bigpiney,439,04FEB2019:08:00:00,25.6,13.14,24.2,24.1,24.3,24.5,24.1,79,80,79,0.352,18.9,19.0,18.6,13.11,14.1,176,6.5,20.2,0.00009,0.00025,28.7,30.3,8,27,0,0.0,0.06,0.00,0.00